Location: Ariel
(45.9570°N, 122.5700°W)
Time: 12:42:59
(UTC-07:00)

Vanguard 1 Rocket - Visible Passes

Search period start: 22 August 2019 00:00
Search period end: 01 September 2019 00:00
Orbit: 652 x 4224 km, 34.3° (Epoch: 21 August)

Date Brightness Start Highest point End Pass type
(mag) Time Alt. Az. Time Alt. Az. Time Alt. Az.
22 Aug 8.5 05:04:32 16° SW 05:07:39 27° S 05:13:45 10° ESE visible
23 Aug 8.5 03:57:24 21° SSE 03:57:24 21° SSE 04:01:21 10° ESE visible
24 Aug 8.4 05:07:34 16° SW 05:10:26 26° S 05:16:09 10° ESE visible
25 Aug 8.4 04:00:28 21° SSE 04:00:28 21° SSE 04:04:04 10° ESE visible
26 Aug 8.4 05:10:41 16° SW 05:13:15 23° S 05:18:26 10° SE visible
27 Aug 8.5 04:03:37 20° SSE 04:03:37 20° SSE 04:06:42 10° SE visible
28 Aug 8.5 05:13:53 15° SW 05:16:05 20° S 05:20:33 10° SE visible
29 Aug 8.7 04:06:52 18° SSE 04:06:52 18° SSE 04:09:13 10° SE visible
30 Aug 8.6 05:17:13 14° SW 05:18:53 16° S 05:22:22 10° SSE visible
31 Aug 8.9 04:10:16 14° SSE 04:10:16 14° SSE 04:11:35 10° SE visible
